Time,TemperatureF,DewpointF,PressureIn,WindDirection,WindDirectionDegrees,WindSpeedMPH,WindSpeedGustMPH,Humidity,HourlyPrecipIn,Conditions,Clouds,dailyrainin,SoftwareType,DateUTC
2013-03-11 00:00:00,49.9,27.6,30.21,SW,217,0.0,1.0,42,0.00,,,0.00,WUHU216DAVISVP2,2013-03-11 04:00:00,
2013-03-11 00:05:00,49.8,28.1,30.21,SW,217,0.0,1.0,43,0.00,,,0.00,WUHU216DAVISVP2,2013-03-11 04:05:00,
2013-03-11 00:10:00,49.6,27.9,30.21,SW,217,0.0,0.0,43,0.00,,,0.00,WUHU216DAVISVP2,2013-03-11 04:10:00,
2013-03-11 00:15:00,49.6,27.9,30.21,SW,217,0.0,1.0,43,0.00,,,0.00,WUHU216DAVISVP2,2013-03-11 04:15:00,
2013-03-11 00:20:00,49.5,27.8,30.21,SW,217,0.0,1.0,43,0.00,,,0.00,WUHU216DAVISVP2,2013-03-11 04:20:00,
2013-03-11 00:25:00,49.5,28.4,30.21,SW,217,0.0,1.0,44,0.00,,,0.00,WUHU216DAVISVP2,2013-03-11 04:25:00,
2013-03-11 00:30:00,49.2,28.1,30.20,SW,217,0.0,1.0,44,0.00,,,0.00,WUHU216DAVISVP2,2013-03-11 04:30:00,
2013-03-11 00:35:00,49.1,28.6,30.20,SW,217,0.0,0.0,45,0.00,,,0.00,WUHU216DAVISVP2,2013-03-11 04:35:00,
2013-03-11 00:40:00,48.9,28.4,30.20,SW,217,0.0,0.0,45,0.00,,,0.00,WUHU216DAVISVP2,2013-03-11 04:40:00,
2013-03-11 00:45:00,48.8,28.3,30.20,SW,217,0.0,0.0,45,0.00,,,0.00,WUHU216DAVISVP2,2013-03-11 04:45:00,
2013-03-11 00:50:00,48.8,28.3,30.20,SW,217,0.0,0.0,45,0.00,,,0.00,WUHU216DAVISVP2,2013-03-11 04:50:00,
2013-03-11 00:55:00,48.6,28.6,30.20,SW,217,0.0,0.0,46,0.00,,,0.00,WUHU216DAVISVP2,2013-03-11 04:55:00,
2013-03-11 01:00:00,48.5,29.1,30.19,SW,217,0.0,0.0,47,0.00,,,0.00,WUHU216DAVISVP2,2013-03-11 05:00:00,
2013-03-11 01:05:00,48.3,28.9,30.19,SW,217,0.0,1.0,47,0.00,,,0.00,WUHU216DAVISVP2,2013-03-11 05:05:00,
2013-03-11 01:10:00,48.2,29.4,30.19,SW,217,0.0,1.0,48,0.00,,,0.00,WUHU216DAVISVP2,2013-03-11 05:10:00,
2013-03-11 01:15:00,48.0,29.7,30.19,SW,217,0.0,1.0,49,0.00,,,0.00,WUHU216DAVISVP2,2013-03-11 05:15:00,
2013-03-11 01:20:00,47.9,30.1,30.19,SW,217,0.0,1.0,50,0.00,,,0.00,WUHU216DAVISVP2,2013-03-11 05:20:00,
2013-03-11 01:25:00,47.7,29.9,30.19,SW,217,0.0,0.0,50,0.00,,,0.00,WUHU216DAVISVP2,2013-03-11 05:25:00,
2013-03-11 01:30:00,47.6,30.3,30.19,SW,217,0.0,0.0,51,0.00,,,0.00,WUHU216DAVISVP2,2013-03-11 05:30:00,
2013-03-11 01:35:00,47.3,30.6,30.19,SW,217,0.0,0.0,52,0.00,,,0.00,WUHU216DAVISVP2,2013-03-11 05:35:00,
2013-03-11 01:40:00,47.1,30.4,30.19,SW,217,0.0,0.0,52,0.00,,,0.00,WUHU216DAVISVP2,2013-03-11 05:40:00,
2013-03-11 01:45:00,46.8,30.6,30.20,SW,217,0.0,0.0,53,0.00,,,0.00,WUHU216DAVISVP2,2013-03-11 05:45:00,
2013-03-11 01:50:00,46.7,30.5,30.20,SW,217,0.0,0.0,53,0.00,,,0.00,WUHU216DAVISVP2,2013-03-11 05:50:00,
2013-03-11 01:55:00,46.2,30.5,30.20,SW,217,0.0,0.0,54,0.00,,,0.00,WUHU216DAVISVP2,2013-03-11 05:55:00,
2013-03-11 02:00:00,46.0,29.8,30.20,SW,217,0.0,0.0,53,0.00,,,0.00,WUHU216DAVISVP2,2013-03-11 06:00:00,
2013-03-11 02:05:00,45.7,30.0,30.20,SW,217,0.0,0.0,54,0.00,,,0.00,WUHU216DAVISVP2,2013-03-11 06:05:00,
2013-03-11 02:10:00,45.2,29.6,30.20,SW,217,0.0,0.0,54,0.00,,,0.00,WUHU216DAVISVP2,2013-03-11 06:10:00,
2013-03-11 02:15:00,44.9,29.3,30.19,SW,217,0.0,0.0,54,0.00,,,0.00,WUHU216DAVISVP2,2013-03-11 06:15:00,
2013-03-11 02:20:00,44.6,29.0,30.19,SW,217,0.0,0.0,54,0.00,,,0.00,WUHU216DAVISVP2,2013-03-11 06:20:00,
2013-03-11 02:25:00,44.5,28.9,30.19,SW,220,0.0,1.0,54,0.00,,,0.00,WUHU216DAVISVP2,2013-03-11 06:25:00,
2013-03-11 02:30:00,44.2,28.1,30.19,SW,220,0.0,1.0,53,0.00,,,0.00,WUHU216DAVISVP2,2013-03-11 06:30:00,
2013-03-11 02:35:00,44.1,28.5,30.19,SW,220,0.0,0.0,54,0.00,,,0.00,WUHU216DAVISVP2,2013-03-11 06:35:00,
2013-03-11 02:40:00,43.8,27.8,30.19,SW,220,0.0,0.0,53,0.00,,,0.00,WUHU216DAVISVP2,2013-03-11 06:40:00,
2013-03-11 02:45:00,43.6,27.6,30.19,SW,220,0.0,0.0,53,0.00,,,0.00,WUHU216DAVISVP2,2013-03-11 06:45:00,
2013-03-11 02:50:00,43.5,27.0,30.19,SW,220,0.0,0.0,52,0.00,,,0.00,WUHU216DAVISVP2,2013-03-11 06:50:00,
2013-03-11 02:55:00,43.6,26.6,30.19,SW,220,0.0,0.0,51,0.00,,,0.00,WUHU216DAVISVP2,2013-03-11 06:55:00,
2013-03-11 03:00:00,43.6,26.1,30.18,SW,220,0.0,0.0,50,0.00,,,0.00,WUHU216DAVISVP2,2013-03-11 07:00:00,
2013-03-11 03:05:00,43.8,26.3,30.18,SW,220,0.0,0.0,50,0.00,,,0.00,WUHU216DAVISVP2,2013-03-11 07:05:00,
2013-03-11 03:10:00,43.8,25.8,30.18,SW,220,0.0,0.0,49,0.00,,,0.00,WUHU216DAVISVP2,2013-03-11 07:10:00,
2013-03-11 03:15:00,43.6,25.6,30.17,SW,220,0.0,0.0,49,0.00,,,0.00,WUHU216DAVISVP2,2013-03-11 07:15:00,
2013-03-11 03:20:00,43.6,25.6,30.17,SW,220,0.0,2.0,49,0.00,,,0.00,WUHU216DAVISVP2,2013-03-11 07:20:00,
2013-03-11 03:25:00,43.5,25.5,30.17,SW,220,0.0,2.0,49,0.00,,,0.00,WUHU216DAVISVP2,2013-03-11 07:25:00,
2013-03-11 03:30:00,43.3,25.9,30.17,SW,220,0.0,0.0,50,0.00,,,0.00,WUHU216DAVISVP2,2013-03-11 07:30:00,
2013-03-11 03:35:00,43.2,25.8,30.17,SW,220,0.0,0.0,50,0.00,,,0.00,WUHU216DAVISVP2,2013-03-11 07:35:00,
2013-03-11 03:40:00,42.9,26.0,30.17,SW,220,0.0,0.0,51,0.00,,,0.00,WUHU216DAVISVP2,2013-03-11 07:40:00,
2013-03-11 03:45:00,42.6,25.7,30.17,SW,220,0.0,0.0,51,0.00,,,0.00,WUHU216DAVISVP2,2013-03-11 07:45:00,
2013-03-11 03:50:00,42.2,25.8,30.17,SW,220,0.0,0.0,52,0.00,,,0.00,WUHU216DAVISVP2,2013-03-11 07:50:00,
2013-03-11 03:55:00,41.9,25.5,30.17,SW,220,0.0,0.0,52,0.00,,,0.00,WUHU216DAVISVP2,2013-03-11 07:55:00,
2013-03-11 04:00:00,41.6,25.3,30.16,SW,220,0.0,0.0,52,0.00,,,0.00,WUHU216DAVISVP2,2013-03-11 08:00:00,
2013-03-11 04:05:00,41.5,25.6,30.16,SW,220,0.0,0.0,53,0.00,,,0.00,WUHU216DAVISVP2,2013-03-11 08:05:00,
2013-03-11 04:10:00,41.3,25.9,30.16,SW,220,0.0,0.0,54,0.00,,,0.00,WUHU216DAVISVP2,2013-03-11 08:10:00,
2013-03-11 04:15:00,41.2,26.3,30.15,SW,220,0.0,0.0,55,0.00,,,0.00,WUHU216DAVISVP2,2013-03-11 08:15:00,
2013-03-11 04:20:00,41.2,27.2,30.15,SW,220,0.0,0.0,57,0.00,,,0.00,WUHU216DAVISVP2,2013-03-11 08:20:00,
2013-03-11 04:25:00,41.3,28.1,30.15,SW,220,0.0,1.0,59,0.00,,,0.00,WUHU216DAVISVP2,2013-03-11 08:25:00,
2013-03-11 04:30:00,41.5,28.3,30.15,SW,220,0.0,1.0,59,0.00,,,0.00,WUHU216DAVISVP2,2013-03-11 08:30:00,
2013-03-11 04:35:00,41.6,29.6,30.15,SW,220,0.0,1.0,62,0.00,,,0.00,WUHU216DAVISVP2,2013-03-11 08:35:00,
2013-03-11 04:40:00,41.8,29.8,30.15,SW,220,0.0,1.0,62,0.00,,,0.00,WUHU216DAVISVP2,2013-03-11 08:40:00,
2013-03-11 04:45:00,41.9,30.7,30.14,SW,220,0.0,0.0,64,0.00,,,0.00,WUHU216DAVISVP2,2013-03-11 08:45:00,
2013-03-11 04:50:00,41.9,31.1,30.14,SW,220,0.0,0.0,65,0.00,,,0.00,WUHU216DAVISVP2,2013-03-11 08:50:00,
2013-03-11 04:55:00,42.1,32.0,30.14,SW,220,0.0,0.0,67,0.00,,,0.00,WUHU216DAVISVP2,2013-03-11 08:55:00,
2013-03-11 05:00:00,42.2,32.1,30.14,SW,220,0.0,0.0,67,0.00,,,0.00,WUHU216DAVISVP2,2013-03-11 09:00:00,
2013-03-11 05:05:00,42.3,32.9,30.14,SW,220,0.0,0.0,69,0.00,,,0.00,WUHU216DAVISVP2,2013-03-11 09:05:00,
2013-03-11 05:10:00,42.3,32.9,30.14,SW,220,0.0,0.0,69,0.00,,,0.00,WUHU216DAVISVP2,2013-03-11 09:10:00,
2013-03-11 05:15:00,42.3,32.9,30.14,SW,220,0.0,0.0,69,0.00,,,0.00,WUHU216DAVISVP2,2013-03-11 09:15:00,
2013-03-11 05:20:00,42.2,33.2,30.14,SW,220,0.0,0.0,70,0.00,,,0.00,WUHU216DAVISVP2,2013-03-11 09:20:00,
2013-03-11 05:25:00,42.1,33.5,30.14,SW,220,0.0,0.0,71,0.00,,,0.00,WUHU216DAVISVP2,2013-03-11 09:25:00,
2013-03-11 05:30:00,41.9,33.3,30.13,SW,220,0.0,0.0,71,0.00,,,0.00,WUHU216DAVISVP2,2013-03-11 09:30:00,
2013-03-11 05:35:00,41.8,33.5,30.13,SW,220,0.0,0.0,72,0.00,,,0.00,WUHU216DAVISVP2,2013-03-11 09:35:00,
2013-03-11 05:40:00,41.6,33.3,30.13,SW,220,0.0,0.0,72,0.00,,,0.00,WUHU216DAVISVP2,2013-03-11 09:40:00,
2013-03-11 05:45:00,41.5,33.2,30.13,SW,220,0.0,0.0,72,0.00,,,0.00,WUHU216DAVISVP2,2013-03-11 09:45:00,
2013-03-11 05:50:00,41.3,33.7,30.13,SW,220,0.0,0.0,74,0.00,,,0.00,WUHU216DAVISVP2,2013-03-11 09:50:00,
2013-03-11 05:55:00,41.2,33.3,30.13,SW,220,0.0,0.0,73,0.00,,,0.00,WUHU216DAVISVP2,2013-03-11 09:55:00,
2013-03-11 06:00:00,41.1,33.5,30.14,SW,220,0.0,0.0,74,0.00,,,0.00,WUHU216DAVISVP2,2013-03-11 10:00:00,
2013-03-11 06:05:00,40.8,32.9,30.14,SW,220,0.0,0.0,73,0.00,,,0.00,WUHU216DAVISVP2,2013-03-11 10:05:00,
2013-03-11 06:10:00,40.6,33.0,30.14,SW,220,0.0,0.0,74,0.00,,,0.00,WUHU216DAVISVP2,2013-03-11 10:10:00,
2013-03-11 06:15:00,40.6,33.0,30.15,SW,220,0.0,0.0,74,0.00,,,0.00,WUHU216DAVISVP2,2013-03-11 10:15:00,
2013-03-11 06:20:00,40.6,33.4,30.15,SW,220,0.0,0.0,75,0.00,,,0.00,WUHU216DAVISVP2,2013-03-11 10:20:00,
2013-03-11 06:25:00,40.5,33.3,30.15,SW,220,0.0,0.0,75,0.00,,,0.00,WUHU216DAVISVP2,2013-03-11 10:25:00,
2013-03-11 06:30:00,40.5,33.6,30.15,SW,220,0.0,0.0,76,0.00,,,0.00,WUHU216DAVISVP2,2013-03-11 10:30:00,
2013-03-11 06:35:00,40.5,33.6,30.15,SW,220,0.0,0.0,76,0.00,,,0.00,WUHU216DAVISVP2,2013-03-11 10:35:00,
2013-03-11 06:40:00,40.6,34.0,30.15,SW,220,0.0,0.0,77,0.00,,,0.00,WUHU216DAVISVP2,2013-03-11 10:40:00,
2013-03-11 06:45:00,40.9,34.6,30.14,SW,220,0.0,0.0,78,0.00,,,0.00,WUHU216DAVISVP2,2013-03-11 10:45:00,
2013-03-11 06:50:00,41.2,34.9,30.14,SW,220,0.0,0.0,78,0.00,,,0.00,WUHU216DAVISVP2,2013-03-11 10:50:00,
2013-03-11 06:55:00,41.5,35.2,30.14,SW,220,0.0,0.0,78,0.00,,,0.00,WUHU216DAVISVP2,2013-03-11 10:55:00,
2013-03-11 07:00:00,41.6,35.6,30.14,SW,220,0.0,0.0,79,0.00,,,0.00,WUHU216DAVISVP2,2013-03-11 11:00:00,
2013-03-11 07:05:00,41.8,35.8,30.14,SW,220,0.0,0.0,79,0.00,,,0.00,WUHU216DAVISVP2,2013-03-11 11:05:00,
2013-03-11 07:10:00,41.8,35.5,30.14,SW,220,0.0,0.0,78,0.00,,,0.00,WUHU216DAVISVP2,2013-03-11 11:10:00,
2013-03-11 07:15:00,41.9,35.9,30.14,SW,220,0.0,2.0,79,0.00,,,0.00,WUHU216DAVISVP2,2013-03-11 11:15:00,
2013-03-11 07:20:00,42.1,36.1,30.14,SW,220,0.0,2.0,79,0.00,,,0.00,WUHU216DAVISVP2,2013-03-11 11:20:00,
2013-03-11 07:25:00,42.1,36.4,30.14,SW,220,0.0,0.0,80,0.00,,,0.00,WUHU216DAVISVP2,2013-03-11 11:25:00,
2013-03-11 07:30:00,42.2,36.5,30.15,SW,220,0.0,0.0,80,0.00,,,0.00,WUHU216DAVISVP2,2013-03-11 11:30:00,
2013-03-11 07:35:00,42.2,36.5,30.15,SW,220,0.0,0.0,80,0.00,,,0.00,WUHU216DAVISVP2,2013-03-11 11:35:00,
2013-03-11 07:40:00,42.3,36.9,30.15,SW,220,0.0,0.0,81,0.00,,,0.00,WUHU216DAVISVP2,2013-03-11 11:40:00,
2013-03-11 07:45:00,42.3,36.9,30.15,SW,220,0.0,0.0,81,0.00,,,0.00,WUHU216DAVISVP2,2013-03-11 11:45:00,
2013-03-11 07:50:00,42.6,37.2,30.15,SW,220,0.0,0.0,81,0.00,,,0.00,WUHU216DAVISVP2,2013-03-11 11:50:00,
2013-03-11 07:55:00,42.8,37.4,30.15,SW,220,0.0,0.0,81,0.00,,,0.00,WUHU216DAVISVP2,2013-03-11 11:55:00,
2013-03-11 08:00:00,42.9,37.8,30.14,SW,220,0.0,0.0,82,0.00,,,0.00,WUHU216DAVISVP2,2013-03-11 12:00:00,
2013-03-11 08:05:00,43.3,38.2,30.14,SW,220,0.0,0.0,82,0.00,,,0.00,WUHU216DAVISVP2,2013-03-11 12:05:00,
2013-03-11 08:10:00,43.6,38.5,30.14,SW,220,0.0,0.0,82,0.00,,,0.00,WUHU216DAVISVP2,2013-03-11 12:10:00,
2013-03-11 08:15:00,43.9,39.1,30.14,SW,220,0.0,0.0,83,0.00,,,0.00,WUHU216DAVISVP2,2013-03-11 12:15:00,
2013-03-11 08:20:00,44.5,39.7,30.14,SW,220,0.0,1.0,83,0.00,,,0.00,WUHU216DAVISVP2,2013-03-11 12:20:00,
2013-03-11 08:25:00,44.9,40.1,30.14,SW,220,0.0,2.0,83,0.00,,,0.00,WUHU216DAVISVP2,2013-03-11 12:25:00,
2013-03-11 08:30:00,45.5,40.6,30.14,SW,220,0.0,2.0,83,0.00,,,0.00,WUHU216DAVISVP2,2013-03-11 12:30:00,
2013-03-11 08:35:00,45.7,40.8,30.14,SW,220,0.0,0.0,83,0.00,,,0.00,WUHU216DAVISVP2,2013-03-11 12:35:00,
2013-03-11 08:40:00,46.5,41.9,30.14,SW,220,0.0,1.0,84,0.00,,,0.00,WUHU216DAVISVP2,2013-03-11 12:40:00,
2013-03-11 08:45:00,47.1,42.5,30.14,SW,220,0.0,1.0,84,0.00,,,0.00,WUHU216DAVISVP2,2013-03-11 12:45:00,
2013-03-11 08:50:00,47.7,43.1,30.14,ESE,114,0.0,4.0,84,0.00,,,0.00,WUHU216DAVISVP2,2013-03-11 12:50:00,
2013-03-11 08:55:00,48.5,43.9,30.14,SW,222,0.0,6.0,84,0.00,,,0.00,WUHU216DAVISVP2,2013-03-11 12:55:00,
2013-03-11 09:00:00,49.2,44.6,30.14,SW,222,0.0,6.0,84,0.00,,,0.00,WUHU216DAVISVP2,2013-03-11 13:00:00,
2013-03-11 09:05:00,49.8,45.2,30.14,SW,224,0.0,4.0,84,0.00,,,0.00,WUHU216DAVISVP2,2013-03-11 13:05:00,
2013-03-11 09:10:00,50.2,45.6,30.14,SW,224,0.0,4.0,84,0.00,,,0.00,WUHU216DAVISVP2,2013-03-11 13:10:00,
2013-03-11 09:15:00,51.1,46.1,30.14,South,178,2.0,2.0,83,0.00,,,0.00,WUHU216DAVISVP2,2013-03-11 13:15:00,
2013-03-11 09:20:00,51.6,46.6,30.14,WSW,239,0.0,4.0,83,0.00,,,0.00,WUHU216DAVISVP2,2013-03-11 13:20:00,
2013-03-11 09:25:00,52.0,46.7,30.14,WSW,239,0.0,4.0,82,0.00,,,0.00,WUHU216DAVISVP2,2013-03-11 13:25:00,
2013-03-11 09:30:00,52.3,47.0,30.14,SW,234,0.0,2.0,82,0.00,,,0.00,WUHU216DAVISVP2,2013-03-11 13:30:00,
2013-03-11 09:35:00,52.8,47.5,30.14,SW,234,0.0,2.0,82,0.00,,,0.00,WUHU216DAVISVP2,2013-03-11 13:35:00,
2013-03-11 09:40:00,53.2,47.9,30.14,WSW,237,0.0,7.0,82,0.00,,,0.00,WUHU216DAVISVP2,2013-03-11 13:40:00,
2013-03-11 09:45:00,53.5,47.8,30.14,SW,233,1.0,7.0,81,0.00,,,0.00,WUHU216DAVISVP2,2013-03-11 13:45:00,
2013-03-11 09:50:00,53.8,48.1,30.14,SW,227,1.0,8.0,81,0.00,,,0.00,WUHU216DAVISVP2,2013-03-11 13:50:00,
2013-03-11 09:55:00,54.2,48.5,30.14,SW,227,0.0,8.0,81,0.00,,,0.00,WUHU216DAVISVP2,2013-03-11 13:55:00,
2013-03-11 10:00:00,54.7,48.7,30.13,SW,223,1.0,6.0,80,0.00,,,0.00,WUHU216DAVISVP2,2013-03-11 14:00:00,
2013-03-11 10:05:00,55.1,49.1,30.13,SW,222,0.0,6.0,80,0.00,,,0.00,WUHU216DAVISVP2,2013-03-11 14:05:00,
2013-03-11 10:10:00,55.3,49.0,30.13,SE,138,0.0,4.0,79,0.00,,,0.00,WUHU216DAVISVP2,2013-03-11 14:10:00,
2013-03-11 10:15:00,55.7,49.3,30.13,SSE,154,0.0,4.0,79,0.00,,,0.00,WUHU216DAVISVP2,2013-03-11 14:15:00,
2013-03-11 10:20:00,56.3,49.6,30.13,ESE,123,0.0,7.0,78,0.00,,,0.00,WUHU216DAVISVP2,2013-03-11 14:20:00,
2013-03-11 10:25:00,56.7,49.6,30.13,South,169,1.0,8.0,77,0.00,,,0.00,WUHU216DAVISVP2,2013-03-11 14:25:00,
2013-03-11 10:30:00,57.5,50.4,30.11,South,169,0.0,8.0,77,0.00,,,0.00,WUHU216DAVISVP2,2013-03-11 14:30:00,
2013-03-11 10:35:00,57.8,50.4,30.11,SSE,165,0.0,4.0,76,0.00,,,0.00,WUHU216DAVISVP2,2013-03-11 14:35:00,
2013-03-11 10:40:00,58.3,50.5,30.11,ESE,106,0.0,4.0,75,0.00,,,0.00,WUHU216DAVISVP2,2013-03-11 14:40:00,
2013-03-11 10:45:00,58.6,50.8,30.10,East,82,0.0,6.0,75,0.00,,,0.00,WUHU216DAVISVP2,2013-03-11 14:45:00,
2013-03-11 10:50:00,58.9,51.1,30.10,East,90,0.0,6.0,75,0.00,,,0.00,WUHU216DAVISVP2,2013-03-11 14:50:00,
2013-03-11 10:55:00,59.5,51.3,30.10,ESE,116,1.0,7.0,74,0.00,,,0.00,WUHU216DAVISVP2,2013-03-11 14:55:00,
2013-03-11 11:00:00,59.6,51.1,30.10,SE,124,0.0,10.0,73,0.00,,,0.00,WUHU216DAVISVP2,2013-03-11 15:00:00,
2013-03-11 11:05:00,59.9,51.3,30.10,East,82,0.0,10.0,73,0.00,,,0.00,WUHU216DAVISVP2,2013-03-11 15:05:00,
2013-03-11 11:10:00,60.4,51.5,30.10,SE,145,0.0,4.0,72,0.00,,,0.00,WUHU216DAVISVP2,2013-03-11 15:10:00,
2013-03-11 11:15:00,61.0,51.7,30.10,East,85,4.0,4.0,71,0.00,,,0.00,WUHU216DAVISVP2,2013-03-11 15:15:00,
2013-03-11 11:20:00,61.3,51.6,30.10,South,182,0.0,7.0,70,0.00,,,0.00,WUHU216DAVISVP2,2013-03-11 15:20:00,
2013-03-11 11:25:00,61.8,51.7,30.10,ESE,119,1.0,7.0,69,0.00,,,0.00,WUHU216DAVISVP2,2013-03-11 15:25:00,
2013-03-11 11:30:00,62.3,51.8,30.10,ESE,119,1.0,2.0,68,0.00,,,0.00,WUHU216DAVISVP2,2013-03-11 15:30:00,
2013-03-11 11:35:00,62.6,51.6,30.10,ESE,119,1.0,4.0,67,0.00,,,0.00,WUHU216DAVISVP2,2013-03-11 15:35:00,
2013-03-11 11:40:00,62.7,51.7,30.10,South,175,0.0,7.0,67,0.00,,,0.00,WUHU216DAVISVP2,2013-03-11 15:40:00,
2013-03-11 11:45:00,63.2,51.8,30.10,East,86,0.0,7.0,66,0.00,,,0.00,WUHU216DAVISVP2,2013-03-11 15:45:00,
2013-03-11 11:50:00,63.7,51.9,30.10,East,90,0.0,6.0,65,0.00,,,0.00,WUHU216DAVISVP2,2013-03-11 15:50:00,
2013-03-11 11:55:00,64.3,52.0,30.10,ESE,112,0.0,6.0,64,0.00,,,0.00,WUHU216DAVISVP2,2013-03-11 15:55:00,
2013-03-11 12:00:00,64.8,51.6,30.10,ESE,107,0.0,4.0,62,0.00,,,0.00,WUHU216DAVISVP2,2013-03-11 16:00:00,
2013-03-11 12:05:00,65.0,51.8,30.10,SW,229,4.0,9.0,62,0.00,,,0.00,WUHU216DAVISVP2,2013-03-11 16:05:00,
2013-03-11 12:10:00,64.7,51.1,30.10,SE,128,1.0,9.0,61,0.00,,,0.00,WUHU216DAVISVP2,2013-03-11 16:10:00,
2013-03-11 12:15:00,64.8,51.2,30.09,ESE,106,1.0,8.0,61,0.00,,,0.00,WUHU216DAVISVP2,2013-03-11 16:15:00,
2013-03-11 12:20:00,65.3,51.2,30.09,WSW,244,2.0,7.0,60,0.00,,,0.00,WUHU216DAVISVP2,2013-03-11 16:20:00,
2013-03-11 12:25:00,65.3,50.8,30.09,SSE,147,1.0,9.0,59,0.00,,,0.00,WUHU216DAVISVP2,2013-03-11 16:25:00,
2013-03-11 12:30:00,65.6,50.6,30.09,WSW,243,0.0,9.0,58,0.00,,,0.00,WUHU216DAVISVP2,2013-03-11 16:30:00,
2013-03-11 12:35:00,65.8,50.8,30.09,SSE,154,2.0,8.0,58,0.00,,,0.00,WUHU216DAVISVP2,2013-03-11 16:35:00,
2013-03-11 12:40:00,65.5,50.0,30.09,SSE,165,2.0,7.0,57,0.00,,,0.00,WUHU216DAVISVP2,2013-03-11 16:40:00,
2013-03-11 12:46:00,65.5,50.5,30.08,SE,140,1.0,9.0,58,0.00,,,0.00,WUHU216DAVISVP2,2013-03-11 16:46:00,
2013-03-11 12:50:00,65.6,50.6,30.08,ESE,102,1.0,9.0,58,0.00,,,0.00,WUHU216DAVISVP2,2013-03-11 16:50:00,
2013-03-11 12:56:00,65.8,50.3,30.08,SSE,168,0.0,2.0,57,0.00,,,0.00,WUHU216DAVISVP2,2013-03-11 16:56:00,
2013-03-11 13:00:00,66.0,50.5,30.08,South,186,2.0,6.0,57,0.00,,,0.00,WUHU216DAVISVP2,2013-03-11 17:00:00,
2013-03-11 13:05:00,66.0,50.0,30.08,ESE,120,2.0,7.0,56,0.00,,,0.00,WUHU216DAVISVP2,2013-03-11 17:05:00,
2013-03-11 13:10:00,66.4,50.3,30.08,SSW,203,7.0,9.0,56,0.00,,,0.00,WUHU216DAVISVP2,2013-03-11 17:10:00,
2013-03-11 13:16:00,66.8,50.2,30.07,SE,127,0.0,9.0,55,0.00,,,0.00,WUHU216DAVISVP2,2013-03-11 17:16:00,
2013-03-11 13:20:00,67.3,50.7,30.07,East,100,2.0,7.0,55,0.00,,,0.00,WUHU216DAVISVP2,2013-03-11 17:20:00,
2013-03-11 13:26:00,67.6,50.5,30.07,SW,216,1.0,8.0,54,0.00,,,0.00,WUHU216DAVISVP2,2013-03-11 17:26:00,
2013-03-11 13:30:00,67.6,50.5,30.06,East,99,1.0,8.0,54,0.00,,,0.00,WUHU216DAVISVP2,2013-03-11 17:30:00,
2013-03-11 13:36:00,67.4,50.3,30.06,WSW,253,6.0,6.0,54,0.00,,,0.00,WUHU216DAVISVP2,2013-03-11 17:36:00,
2013-03-11 13:41:00,67.6,50.5,30.06,SW,236,0.0,6.0,54,0.00,,,0.00,WUHU216DAVISVP2,2013-03-11 17:41:00,
2013-03-11 13:46:00,68.1,49.9,30.05,SW,224,2.0,9.0,52,0.00,,,0.00,WUHU216DAVISVP2,2013-03-11 17:46:00,
2013-03-11 13:50:00,68.3,50.6,30.05,SSW,206,0.0,9.0,53,0.00,,,0.00,WUHU216DAVISVP2,2013-03-11 17:50:00,
2013-03-11 13:56:00,68.1,50.4,30.05,ESE,106,0.0,6.0,53,0.00,,,0.00,WUHU216DAVISVP2,2013-03-11 17:56:00,
2013-03-11 14:00:00,68.6,50.9,30.04,WSW,248,4.0,6.0,53,0.00,,,0.00,WUHU216DAVISVP2,2013-03-11 18:00:00,
2013-03-11 14:06:00,68.9,50.6,30.04,SSE,152,0.0,6.0,52,0.00,,,0.00,WUHU216DAVISVP2,2013-03-11 18:06:00,
2013-03-11 14:11:00,69.6,51.3,30.04,ESE,112,0.0,4.0,52,0.00,,,0.00,WUHU216DAVISVP2,2013-03-11 18:11:00,
2013-03-11 14:16:00,69.6,50.7,30.03,ESE,102,1.0,6.0,51,0.00,,,0.00,WUHU216DAVISVP2,2013-03-11 18:16:00,
2013-03-11 14:21:00,69.6,50.7,30.03,SSE,150,2.0,6.0,51,0.00,,,0.00,WUHU216DAVISVP2,2013-03-11 18:21:00,
2013-03-11 14:26:00,69.9,51.0,30.03,East,92,0.0,6.0,51,0.00,,,0.00,WUHU216DAVISVP2,2013-03-11 18:26:00,
2013-03-11 14:31:00,69.9,50.5,30.02,WSW,237,6.0,6.0,50,0.00,,,0.00,WUHU216DAVISVP2,2013-03-11 18:31:00,
2013-03-11 14:36:00,69.1,49.7,30.02,WSW,239,6.0,10.0,50,0.00,,,0.00,WUHU216DAVISVP2,2013-03-11 18:36:00,
2013-03-11 14:42:00,68.6,49.3,30.02,South,171,1.0,10.0,50,0.00,,,0.00,WUHU216DAVISVP2,2013-03-11 18:42:00,
2013-03-11 14:47:00,68.6,49.3,30.02,NW,311,0.0,8.0,50,0.00,,,0.00,WUHU216DAVISVP2,2013-03-11 18:47:00,
2013-03-11 14:52:00,68.6,49.3,30.02,SE,131,2.0,9.0,50,0.00,,,0.00,WUHU216DAVISVP2,2013-03-11 18:52:00,
2013-03-11 14:57:00,68.8,49.5,30.02,SE,145,1.0,9.0,50,0.00,,,0.00,WUHU216DAVISVP2,2013-03-11 18:57:00,
2013-03-11 15:02:00,69.4,48.9,30.00,ENE,65,0.0,8.0,48,0.00,,,0.00,WUHU216DAVISVP2,2013-03-11 19:02:00,
2013-03-11 15:07:00,70.1,49.5,30.00,SW,229,0.0,7.0,48,0.00,,,0.00,WUHU216DAVISVP2,2013-03-11 19:07:00,
2013-03-11 15:12:00,70.4,49.2,30.00,East,83,1.0,7.0,47,0.00,,,0.00,WUHU216DAVISVP2,2013-03-11 19:12:00,
2013-03-11 15:17:00,70.3,49.1,29.99,SE,128,1.0,7.0,47,0.00,,,0.00,WUHU216DAVISVP2,2013-03-11 19:17:00,
2013-03-11 15:22:00,70.3,49.7,29.99,West,272,0.0,9.0,48,0.00,,,0.00,WUHU216DAVISVP2,2013-03-11 19:22:00,
2013-03-11 15:27:00,70.8,50.2,29.99,ESE,110,0.0,9.0,48,0.00,,,0.00,WUHU216DAVISVP2,2013-03-11 19:27:00,
2013-03-11 15:32:00,70.8,49.6,29.98,NNE,24,1.0,6.0,47,0.00,,,0.00,WUHU216DAVISVP2,2013-03-11 19:32:00,
2013-03-11 15:37:00,70.3,49.1,29.98,ESE,120,0.0,7.0,47,0.00,,,0.00,WUHU216DAVISVP2,2013-03-11 19:37:00,
2013-03-11 15:42:00,69.6,49.1,29.98,SW,219,6.0,7.0,48,0.00,,,0.00,WUHU216DAVISVP2,2013-03-11 19:42:00,
2013-03-11 15:47:00,69.1,48.6,29.98,ESE,119,0.0,7.0,48,0.00,,,0.00,WUHU216DAVISVP2,2013-03-11 19:47:00,
2013-03-11 15:52:00,68.9,48.4,29.98,SSE,154,1.0,7.0,48,0.00,,,0.00,WUHU216DAVISVP2,2013-03-11 19:52:00,
2013-03-11 15:57:00,69.1,48.6,29.98,SSW,209,6.0,8.0,48,0.00,,,0.00,WUHU216DAVISVP2,2013-03-11 19:57:00,
2013-03-11 16:02:00,68.9,48.4,29.96,SSE,160,1.0,10.0,48,0.00,,,0.00,WUHU216DAVISVP2,2013-03-11 20:02:00,
2013-03-11 16:07:00,69.1,48.6,29.96,ESE,106,0.0,10.0,48,0.00,,,0.00,WUHU216DAVISVP2,2013-03-11 20:07:00,
2013-03-11 16:12:00,69.3,49.4,29.96,East,90,1.0,8.0,49,0.00,,,0.00,WUHU216DAVISVP2,2013-03-11 20:12:00,
2013-03-11 16:17:00,69.3,48.8,29.95,SSW,199,4.0,8.0,48,0.00,,,0.00,WUHU216DAVISVP2,2013-03-11 20:17:00,
2013-03-11 16:22:00,69.3,48.8,29.95,SSW,210,0.0,7.0,48,0.00,,,0.00,WUHU216DAVISVP2,2013-03-11 20:22:00,
2013-03-11 16:27:00,69.1,48.6,29.95,East,89,1.0,6.0,48,0.00,,,0.00,WUHU216DAVISVP2,2013-03-11 20:27:00,
2013-03-11 16:32:00,68.9,48.4,29.95,SSE,157,0.0,6.0,48,0.00,,,0.00,WUHU216DAVISVP2,2013-03-11 20:32:00,
2013-03-11 16:37:00,68.8,48.3,29.95,East,89,1.0,6.0,48,0.00,,,0.00,WUHU216DAVISVP2,2013-03-11 20:37:00,
2013-03-11 16:42:00,68.8,48.3,29.95,ESE,112,0.0,6.0,48,0.00,,,0.00,WUHU216DAVISVP2,2013-03-11 20:42:00,
2013-03-11 16:47:00,68.8,48.3,29.95,ENE,76,1.0,7.0,48,0.00,,,0.00,WUHU216DAVISVP2,2013-03-11 20:47:00,
2013-03-11 16:52:00,68.3,47.9,29.95,SE,134,2.0,7.0,48,0.00,,,0.00,WUHU216DAVISVP2,2013-03-11 20:52:00,
2013-03-11 16:57:00,68.1,48.8,29.95,SSW,213,1.0,8.0,50,0.00,,,0.00,WUHU216DAVISVP2,2013-03-11 20:57:00,
2013-03-11 17:02:00,68.1,48.8,29.95,ESE,112,0.0,8.0,50,0.00,,,0.00,WUHU216DAVISVP2,2013-03-11 21:02:00,
2013-03-11 17:07:00,67.8,48.5,29.95,SE,130,0.0,6.0,50,0.00,,,0.00,WUHU216DAVISVP2,2013-03-11 21:07:00,
2013-03-11 17:12:00,67.6,48.9,29.95,SSW,198,0.0,4.0,51,0.00,,,0.00,WUHU216DAVISVP2,2013-03-11 21:12:00,
2013-03-11 17:17:00,67.3,49.1,29.96,SW,223,6.0,6.0,52,0.00,,,0.00,WUHU216DAVISVP2,2013-03-11 21:17:00,
2013-03-11 17:22:00,66.9,49.3,29.96,North,0,1.0,6.0,53,0.00,,,0.00,WUHU216DAVISVP2,2013-03-11 21:22:00,
2013-03-11 17:27:00,66.9,49.3,29.96,NE,52,0.0,4.0,53,0.00,,,0.00,WUHU216DAVISVP2,2013-03-11 21:27:00,
2013-03-11 17:32:00,66.8,49.7,29.96,SSW,196,0.0,9.0,54,0.00,,,0.00,WUHU216DAVISVP2,2013-03-11 21:32:00,
2013-03-11 17:37:00,66.6,50.0,29.96,SSE,150,0.0,9.0,55,0.00,,,0.00,WUHU216DAVISVP2,2013-03-11 21:37:00,
2013-03-11 17:42:00,66.4,49.9,29.96,SSW,210,0.0,7.0,55,0.00,,,0.00,WUHU216DAVISVP2,2013-03-11 21:42:00,
2013-03-11 17:47:00,66.3,49.8,29.96,East,93,0.0,7.0,55,0.00,,,0.00,WUHU216DAVISVP2,2013-03-11 21:47:00,
2013-03-11 17:53:00,66.0,49.5,29.96,East,93,1.0,6.0,55,0.00,,,0.00,WUHU216DAVISVP2,2013-03-11 21:53:00,
2013-03-11 17:58:00,65.8,49.7,29.96,SE,130,1.0,6.0,56,0.00,,,0.00,WUHU216DAVISVP2,2013-03-11 21:58:00,
2013-03-11 18:03:00,65.6,49.5,29.96,SSW,205,0.0,7.0,56,0.00,,,0.00,WUHU216DAVISVP2,2013-03-11 22:03:00,
2013-03-11 18:08:00,65.5,49.9,29.96,SSW,205,0.0,7.0,57,0.00,,,0.00,WUHU216DAVISVP2,2013-03-11 22:08:00,
2013-03-11 18:13:00,65.5,49.9,29.96,SSW,200,0.0,6.0,57,0.00,,,0.00,WUHU216DAVISVP2,2013-03-11 22:13:00,
2013-03-11 18:18:00,65.5,50.0,29.95,ESE,110,2.0,2.0,57,0.00,,,0.00,WUHU216DAVISVP2,2013-03-11 22:18:00,
2013-03-11 18:23:00,65.3,49.8,29.95,SW,222,1.0,6.0,57,0.00,,,0.00,WUHU216DAVISVP2,2013-03-11 22:23:00,
2013-03-11 18:28:00,65.2,50.2,29.95,NE,51,2.0,9.0,58,0.00,,,0.00,WUHU216DAVISVP2,2013-03-11 22:28:00,
2013-03-11 18:33:00,65.0,50.0,29.95,SE,134,0.0,9.0,58,0.00,,,0.00,WUHU216DAVISVP2,2013-03-11 22:33:00,
2013-03-11 18:38:00,64.8,50.1,29.95,South,184,0.0,7.0,59,0.00,,,0.00,WUHU216DAVISVP2,2013-03-11 22:38:00,
2013-03-11 18:43:00,64.8,50.1,29.95,ESE,120,0.0,8.0,59,0.00,,,0.00,WUHU216DAVISVP2,2013-03-11 22:43:00,
2013-03-11 18:48:00,64.5,49.8,29.94,SSE,158,1.0,8.0,59,0.00,,,0.00,WUHU216DAVISVP2,2013-03-11 22:48:00,
2013-03-11 18:53:00,64.3,50.3,29.94,North,1,1.0,6.0,60,0.00,,,0.00,WUHU216DAVISVP2,2013-03-11 22:53:00,
2013-03-11 18:58:00,64.2,50.2,29.94,SSW,193,0.0,8.0,60,0.00,,,0.00,WUHU216DAVISVP2,2013-03-11 22:58:00,
2013-03-11 19:03:00,64.0,49.8,29.93,SW,232,4.0,8.0,60,0.00,,,0.00,WUHU216DAVISVP2,2013-03-11 23:03:00,
2013-03-11 19:08:00,63.9,49.7,29.93,ESE,123,0.0,4.0,60,0.00,,,0.00,WUHU216DAVISVP2,2013-03-11 23:08:00,
2013-03-11 19:13:00,63.7,50.0,29.93,SSW,213,0.0,6.0,61,0.00,,,0.00,WUHU216DAVISVP2,2013-03-11 23:13:00,
2013-03-11 19:18:00,63.5,50.0,29.92,SE,131,0.0,8.0,61,0.00,,,0.00,WUHU216DAVISVP2,2013-03-11 23:18:00,
2013-03-11 19:23:00,63.4,49.7,29.92,SW,219,0.0,8.0,61,0.00,,,0.00,WUHU216DAVISVP2,2013-03-11 23:23:00,
2013-03-11 19:28:00,63.2,49.5,29.92,South,191,1.0,8.0,61,0.00,,,0.00,WUHU216DAVISVP2,2013-03-11 23:28:00,
2013-03-11 19:33:00,63.1,49.4,29.92,SW,219,0.0,6.0,61,0.00,,,0.00,WUHU216DAVISVP2,2013-03-11 23:33:00,
2013-03-11 19:38:00,63.1,49.9,29.92,SSE,154,0.0,6.0,62,0.00,,,0.00,WUHU216DAVISVP2,2013-03-11 23:38:00,
2013-03-11 19:43:00,62.9,50.3,29.92,SSW,200,4.0,4.0,63,0.00,,,0.00,WUHU216DAVISVP2,2013-03-11 23:43:00,
2013-03-11 19:48:00,62.9,50.3,29.92,SW,236,1.0,4.0,63,0.00,,,0.00,WUHU216DAVISVP2,2013-03-11 23:48:00,
2013-03-11 19:53:00,62.7,50.1,29.92,ESE,114,0.0,4.0,63,0.00,,,0.00,WUHU216DAVISVP2,2013-03-11 23:53:00,
2013-03-11 19:58:00,62.6,50.4,29.92,ESE,114,2.0,4.0,64,0.00,,,0.00,WUHU216DAVISVP2,2013-03-11 23:58:00,
2013-03-11 20:03:00,62.4,50.2,29.93,WSW,243,1.0,6.0,64,0.00,,,0.00,WUHU216DAVISVP2,2013-03-12 00:03:00,
2013-03-11 20:08:00,62.4,50.5,29.93,SW,229,0.0,6.0,65,0.00,,,0.00,WUHU216DAVISVP2,2013-03-12 00:08:00,
2013-03-11 20:13:00,62.3,50.4,29.93,North,349,8.0,8.0,65,0.00,,,0.00,WUHU216DAVISVP2,2013-03-12 00:13:00,
2013-03-11 20:18:00,62.1,50.2,29.93,ESE,117,0.0,8.0,65,0.00,,,0.00,WUHU216DAVISVP2,2013-03-12 00:18:00,
2013-03-11 20:23:00,62.0,50.3,29.93,SSE,150,0.0,8.0,65,0.00,,,0.00,WUHU216DAVISVP2,2013-03-12 00:23:00,
2013-03-11 20:28:00,62.0,50.7,29.93,WSW,247,0.0,2.0,66,0.00,,,0.00,WUHU216DAVISVP2,2013-03-12 00:28:00,
2013-03-11 20:33:00,62.0,50.7,29.93,WSW,253,0.0,1.0,66,0.00,,,0.00,WUHU216DAVISVP2,2013-03-12 00:33:00,
2013-03-11 20:38:00,61.6,50.3,29.93,East,97,0.0,1.0,66,0.00,,,0.00,WUHU216DAVISVP2,2013-03-12 00:38:00,
2013-03-11 20:43:00,61.5,50.2,29.93,SW,229,4.0,4.0,66,0.00,,,0.00,WUHU216DAVISVP2,2013-03-12 00:43:00,
2013-03-11 20:48:00,61.5,50.0,29.93,SSW,212,1.0,4.0,66,0.00,,,0.00,WUHU216DAVISVP2,2013-03-12 00:48:00,
2013-03-11 20:53:00,61.5,50.4,29.93,SE,144,0.0,4.0,67,0.00,,,0.00,WUHU216DAVISVP2,2013-03-12 00:53:00,
2013-03-11 20:58:00,61.3,50.2,29.93,SE,137,0.0,1.0,67,0.00,,,0.00,WUHU216DAVISVP2,2013-03-12 00:58:00,
2013-03-11 21:03:00,61.3,50.2,29.94,East,83,1.0,4.0,67,0.00,,,0.00,WUHU216DAVISVP2,2013-03-12 01:03:00,
2013-03-11 21:08:00,61.3,50.2,29.94,South,184,0.0,4.0,67,0.00,,,0.00,WUHU216DAVISVP2,2013-03-12 01:08:00,
2013-03-11 21:13:00,61.3,50.2,29.94,WSW,240,1.0,2.0,67,0.00,,,0.00,WUHU216DAVISVP2,2013-03-12 01:13:00,
2013-03-11 21:18:00,61.3,50.2,29.94,South,191,0.0,2.0,67,0.00,,,0.00,WUHU216DAVISVP2,2013-03-12 01:18:00,
2013-03-11 21:23:00,61.3,50.2,29.94,NNE,24,0.0,2.0,67,0.00,,,0.00,WUHU216DAVISVP2,2013-03-12 01:23:00,
2013-03-11 21:28:00,61.3,50.4,29.94,SW,232,0.0,2.0,67,0.00,,,0.00,WUHU216DAVISVP2,2013-03-12 01:28:00,
2013-03-11 21:33:00,61.3,50.2,29.94,SE,133,0.0,2.0,67,0.00,,,0.00,WUHU216DAVISVP2,2013-03-12 01:33:00,
2013-03-11 21:38:00,61.3,50.6,29.94,SSW,209,0.0,7.0,68,0.00,,,0.00,WUHU216DAVISVP2,2013-03-12 01:38:00,
2013-03-11 21:43:00,61.3,50.6,29.94,SSW,213,2.0,7.0,68,0.00,,,0.00,WUHU216DAVISVP2,2013-03-12 01:43:00,
2013-03-11 21:48:00,61.2,50.9,29.93,SW,234,0.0,7.0,69,0.00,,,0.00,WUHU216DAVISVP2,2013-03-12 01:48:00,
2013-03-11 21:53:00,61.0,50.8,29.93,SW,227,0.0,2.0,69,0.00,,,0.00,WUHU216DAVISVP2,2013-03-12 01:53:00,
2013-03-11 21:58:00,60.9,50.8,29.93,East,80,4.0,4.0,69,0.00,,,0.00,WUHU216DAVISVP2,2013-03-12 01:58:00,
2013-03-11 22:03:00,60.7,50.6,29.93,East,86,0.0,4.0,69,0.00,,,0.00,WUHU216DAVISVP2,2013-03-12 02:03:00,
2013-03-11 22:08:00,60.5,50.4,29.93,East,85,1.0,1.0,69,0.00,,,0.00,WUHU216DAVISVP2,2013-03-12 02:08:00,
2013-03-11 22:13:00,60.5,50.4,29.93,ENE,64,0.0,2.0,69,0.00,,,0.00,WUHU216DAVISVP2,2013-03-12 02:13:00,
2013-03-11 22:18:00,60.5,50.4,29.93,ESE,104,0.0,2.0,69,0.00,,,0.00,WUHU216DAVISVP2,2013-03-12 02:18:00,
2013-03-11 22:23:00,60.5,50.4,29.93,East,97,0.0,4.0,69,0.00,,,0.00,WUHU216DAVISVP2,2013-03-12 02:23:00,
2013-03-11 22:28:00,60.5,50.4,29.93,East,96,0.0,4.0,69,0.00,,,0.00,WUHU216DAVISVP2,2013-03-12 02:28:00,
2013-03-11 22:33:00,60.4,50.7,29.92,WSW,257,2.0,2.0,70,0.00,,,0.00,WUHU216DAVISVP2,2013-03-12 02:33:00,
2013-03-11 22:38:00,60.4,50.7,29.92,SW,229,0.0,6.0,70,0.00,,,0.00,WUHU216DAVISVP2,2013-03-12 02:38:00,
2013-03-11 22:43:00,60.4,50.7,29.92,SE,143,0.0,6.0,70,0.00,,,0.00,WUHU216DAVISVP2,2013-03-12 02:43:00,
2013-03-11 22:48:00,60.4,50.7,29.92,SE,144,0.0,1.0,70,0.00,,,0.00,WUHU216DAVISVP2,2013-03-12 02:48:00,
2013-03-11 22:53:00,60.2,50.5,29.92,SSE,152,0.0,1.0,70,0.00,,,0.00,WUHU216DAVISVP2,2013-03-12 02:53:00,
2013-03-11 22:58:00,60.1,50.4,29.92,SSE,152,0.0,1.0,70,0.00,,,0.00,WUHU216DAVISVP2,2013-03-12 02:58:00,
2013-03-11 23:03:00,60.1,50.3,29.91,South,179,0.0,4.0,70,0.00,,,0.00,WUHU216DAVISVP2,2013-03-12 03:03:00,
2013-03-11 23:08:00,60.1,50.7,29.91,SW,232,0.0,6.0,71,0.00,,,0.00,WUHU216DAVISVP2,2013-03-12 03:08:00,
2013-03-11 23:13:00,60.1,50.7,29.91,WSW,240,7.0,7.0,71,0.00,,,0.00,WUHU216DAVISVP2,2013-03-12 03:13:00,
2013-03-11 23:18:00,60.1,50.7,29.92,SW,216,0.0,7.0,71,0.00,,,0.00,WUHU216DAVISVP2,2013-03-12 03:18:00,
2013-03-11 23:23:00,59.9,50.5,29.92,SW,216,0.0,2.0,71,0.00,,,0.00,WUHU216DAVISVP2,2013-03-12 03:23:00,
2013-03-11 23:28:00,59.9,50.5,29.92,SSW,192,0.0,6.0,71,0.00,,,0.00,WUHU216DAVISVP2,2013-03-12 03:28:00,
2013-03-11 23:33:00,59.9,50.5,29.92,SW,232,1.0,6.0,71,0.00,,,0.00,WUHU216DAVISVP2,2013-03-12 03:33:00,
2013-03-11 23:38:00,59.9,50.8,29.92,SSW,195,0.0,7.0,72,0.00,,,0.00,WUHU216DAVISVP2,2013-03-12 03:38:00,
2013-03-11 23:43:00,59.9,50.8,29.92,North,11,0.0,7.0,72,0.00,,,0.00,WUHU216DAVISVP2,2013-03-12 03:43:00,
2013-03-11 23:48:00,59.9,50.8,29.91,ENE,75,0.0,6.0,72,0.00,,,0.00,WUHU216DAVISVP2,2013-03-12 03:48:00,
2013-03-11 23:53:00,59.9,50.8,29.91,ENE,76,0.0,2.0,72,0.00,,,0.00,WUHU216DAVISVP2,2013-03-12 03:53:00,
2013-03-11 23:58:00,59.8,50.9,29.91,ESE,106,0.0,2.0,72,0.00,,,0.00,WUHU216DAVISVP2,2013-03-12 03:58:00,